Find Starlink 4477

NORAD ID: 53546 Int'l Des: 2022-101 Owner: SPXS Country: US Constellation: starlink operational
LEOCIRCULAR

現在のビュー

3D地球を読み込み中...

About Starlink 4477

Starlink 4477 (NORAD 53546) is a starlink constellation satellite (v1.5) launched Aug 19, 2022 by SPXS of US. It operates in LEO, CIRCULAR orbit with a mass of 300.00 kg.

Starlink 4477について

説明を読み込み中...

次回通過

Passes for default location (London). Set your location on the main map for personalized predictions.

高度履歴

Loading altitude history...

軌道要素

1 53546U 22101V 26168.85770093 .00122255 00000-0 73549-2 0 9998
2 53546 53.1607 323.8634 0001703 50.2623 309.8519 15.09882042211575
Epoch: Jun 17, 2026 • Age: 5 hours

現在のステータス

高度 535.8 km
速度 7.60 km/s
衛星直下点 20.29°N, 50.68°E
打ち上げ日 Aug 19, 2022
運用期間 3.8 years
タイプ internet

技術仕様

分類 Payload
質量 300.00 kg
乾燥質量 290.00 kg
総質量 300.00 kg
長さ 0.20 m
直径 2.80 m
スパン 9.00 m
形状 Box + pan
製造者 SPXS
バスタイプ Starlink
フェーズステータス In Orbit
所有者/国 SPXS/US

Most Searched